FW5795 Weather Reports


time (UTC)temp
C
wind
direction
speed
KPH
gust
KPH
rain 1hr
cm
rain 24hr
cm
rain mn
cm
humidity
%
barometer
mb
20260507085909 10 282 0.0 3.2 0.00 0.56 0.08 78 1008.9
20260507085856 10 255 1.6 4.8 0.00 0.56 0.08 78 1009.0
20260507084830 10 282 1.6 4.8 0.03 0.56 0.08 78 1008.9
20260507084330 10 297 1.6 4.8 0.03 0.56 0.08 78 1008.7
20260507083829 10 302 1.6 4.8 0.03 0.56 0.08 78 1008.8
20260507083330 10 261 3.2 8.0 0.03 0.56 0.08 78 1008.8
20260507083106 10 64 3.2 8.0 0.03 0.56 0.08 78 1008.4
20260507082331 10 300 1.6 4.8 0.03 0.56 0.08 79 1008.5
20260507082105 10 276 0.0 4.8 0.03 0.56 0.08 79 1008.5
20260507081326 10 276 0.0 3.2 0.03 0.56 0.08 79 1008.6
20260507080825 10 276 0.0 3.2 0.03 0.56 0.08 79 1008.5
20260507080612 10 273 0.0 3.2 0.03 0.56 0.08 79 1008.4
20260507075819 10 272 0.0 3.2 0.03 0.56 0.08 79 1008.6
20260507075318 10 281 0.0 4.8 0.03 0.56 0.08 79 1008.8
20260507074818 10 289 0.0 4.8 0.00 0.53 0.05 79 1008.6
20260507074317 10 289 1.6 3.2 0.00 0.53 0.05 79 1008.8
20260507073815 10 289 0.0 3.2 0.00 0.53 0.05 79 1008.9
20260507073313 10 289 0.0 1.6 0.00 0.53 0.05 79 1008.8
20260507073048 10 289 0.0 1.6 0.00 0.53 0.05 79 1008.5
20260507072313 10 289 0.0 1.6 0.00 0.53 0.05 80 1008.2
20260507071813 10 289 0.0 1.6 0.00 0.53 0.05 80 1008.1
20260507071555 10 289 0.0 3.2 0.00 0.53 0.05 80 1008.0
20260507070811 10 289 0.0 3.2 0.00 0.53 0.05 80 1007.9
20260507070311 10 288 0.0 3.2 0.00 0.53 0.05 80 1008.1
20260507065810 10 289 1.6 4.8 0.00 0.53 0.05 80 1007.9
20260507065309 10 289 1.6 4.8 0.00 0.53 0.05 80 1007.8
20260507064804 10 289 1.6 4.8 0.00 0.53 0.05 81 1007.7
20260507064306 11 285 1.6 4.8 0.00 0.53 0.05 81 1007.9
20260507063759 11 284 1.6 4.8 0.00 0.53 0.05 81 1007.9
20260507063253 11 294 0.0 3.2 0.00 0.53 0.05 81 1007.8
20260507063028 11 294 1.6 6.4 0.00 0.53 0.05 82 1007.9
20260507062241 11 294 1.6 6.4 0.00 0.53 0.05 82 1007.8
20260507061735 11 306 1.6 6.4 0.00 0.53 0.05 82 1007.6
20260507061517 11 234 3.2 6.4 0.00 0.53 0.05 82 1007.7
20260507060723 11 281 3.2 6.4 0.00 0.53 0.05 82 1007.9
20260507060217 11 298 3.2 8.0 0.00 0.53 0.05 82 1007.8
20260507055711 11 298 3.2 8.0 0.00 0.53 0.05 82 1007.8
20260507055458 11 303 3.2 8.0 0.00 0.53 0.05 82 1008.0
20260507054951 11 305 3.2 6.4 0.00 0.53 0.05 83 1008.0
20260507054209 12 280 1.6 6.4 0.00 0.53 0.05 83 1008.2
20260507053708 12 275 1.6 3.2 0.00 0.53 0.05 83 1008.4
20260507053207 12 288 1.6 3.2 0.00 0.53 0.05 83 1008.2
20260507052707 12 288 1.6 8.0 0.00 0.53 0.05 83 1008.0
20260507052205 12 288 3.2 8.0 0.00 0.53 0.05 83 1008.2
20260507051706 12 346 3.2 8.0 0.03 0.53 0.05 83 1008.3
20260507051205 12 270 3.2 8.0 0.03 0.53 0.05 83 1008.3
20260507050708 12 299 3.2 8.0 0.03 0.53 0.05 83 1008.3
20260507050205 12 311 3.2 6.4 0.03 0.53 0.05 83 1008.1
20260507045942 12 326 3.2 6.4 0.05 0.53 0.05 83 1008.2
20260507045204 12 295 3.2 8.0 0.08 0.53 0.05 83 1008.3
20260507044705 13 296 3.2 8.0 0.08 0.53 0.05 83 1008.3
20260507044205 13 305 3.2 9.7 0.08 0.53 0.05 83 1008.1
20260507043941 13 281 1.6 9.7 0.08 0.53 0.05 83 1008.1
20260507043202 13 311 1.6 6.4 0.08 0.53 0.05 83 1008.0
20260507042703 13 311 3.2 6.4 0.08 0.53 0.05 83 1007.9
20260507042443 13 305 1.6 6.4 0.08 0.53 0.03 83 1008.0
20260507041652 13 314 1.6 6.4 0.05 0.51 0.03 83 1008.0
20260507041146 13 259 3.2 8.0 0.05 0.51 0.03 84 1008.1
20260507040640 13 322 4.8 11.3 0.05 0.51 0.03 84 1008.2
20260507040142 13 284 4.8 12.9 0.05 0.51 0.00 84 1008.1
20260507035636 13 266 4.8 12.9 0.03 0.48 0.48 84 1007.9
20260507035138 14 284 4.8 12.9 0.00 0.46 0.46 84 1007.9
20260507034639 14 264 3.2 6.4 0.00 0.46 0.46 84 1007.8
20260507034137 14 257 4.8 11.3 0.00 0.46 0.46 84 1007.6
20260507033637 15 263 4.8 11.3 0.00 0.46 0.46 84 1007.7
20260507033136 15 252 3.2 11.3 0.00 0.46 0.46 84 1007.7
20260507032631 15 276 3.2 11.3 0.00 0.46 0.46 85 1007.6
20260507032132 15 242 3.2 11.3 0.00 0.46 0.46 84 1007.3
20260507031629 15 302 3.2 8.0 0.00 0.46 0.46 84 1007.3
20260507031128 15 252 3.2 6.4 0.00 0.46 0.46 84 1007.1
20260507030627 15 205 3.2 12.9 0.00 0.46 0.46 84 1007.0
20260507030127 15 270 3.2 12.9 0.00 0.46 0.46 84 1006.9
20260507025628 15 224 4.8 17.7 0.00 0.46 0.46 84 1006.9
20260507025126 15 207 4.8 17.7 0.00 0.46 0.46 84 1006.9
20260507024631 15 220 4.8 16.1 0.00 0.46 0.46 84 1007.0
20260507024123 15 195 4.8 16.1 0.00 0.46 0.46 84 1007.0
20260507023621 15 157 6.4 12.9 0.00 0.46 0.46 84 1006.9
20260507023119 15 211 6.4 14.5 0.00 0.46 0.46 84 1007.0
20260507022621 15 212 8.0 16.1 0.00 0.46 0.46 84 1007.0
20260507022118 15 208 6.4 16.1 0.00 0.46 0.46 84 1006.9
20260507021616 15 222 6.4 12.9 0.00 0.46 0.46 84 1006.9
20260507021115 15 223 4.8 12.9 0.00 0.46 0.46 84 1006.8
20260507020615 15 192 3.2 9.7 0.00 0.46 0.46 84 1006.7
20260507020114 15 186 4.8 12.9 0.00 0.46 0.46 84 1006.8
20260507015613 15 161 6.4 12.9 0.00 0.46 0.46 84 1006.8
20260507015112 15 243 6.4 12.9 0.00 0.46 0.46 84 1007.0
20260507014612 15 203 6.4 12.9 0.00 0.46 0.46 84 1007.0
20260507014354 15 234 4.8 12.9 0.00 0.46 0.46 84 1007.1
20260507013610 15 224 4.8 11.3 0.00 0.46 0.46 84 1007.1
20260507013108 15 184 4.8 11.3 0.00 0.46 0.46 84 1007.0
20260507012606 15 211 4.8 11.3 0.00 0.46 0.46 83 1006.9
20260507012108 15 210 6.4 16.1 0.00 0.46 0.46 83 1007.1
20260507011603 15 213 6.4 16.1 0.00 0.46 0.46 83 1007.1
20260507011340 15 201 6.4 12.9 0.00 0.46 0.46 83 1007.0
20260507010814 15 212 6.4 17.7 0.00 0.46 0.46 83 1007.1
20260507010554 15 212 6.4 17.7 0.00 0.46 0.46 83 1007.1
20260507010116 15 149 4.8 17.7 0.00 0.46 0.46 83 1007.1
20260507005547 15 185 4.8 11.3 0.00 0.46 0.46 83 1007.0
20260507005045 15 207 6.4 12.9 0.00 0.46 0.46 83 1007.0
20260507004547 15 176 8.0 14.5 0.00 0.46 0.46 83 1006.9
20260507004040 15 147 6.4 14.5 0.00 0.46 0.46 82 1007.1
20260507003539 15 187 6.4 12.9 0.00 0.46 0.46 82 1007.0
20260507003321 15 143 4.8 11.3 0.00 0.46 0.46 82 1006.9
20260507002539 15 188 4.8 12.9 0.00 0.46 0.46 82 1006.9
20260507002038 15 194 4.8 12.9 0.03 0.46 0.46 82 1006.9
20260507001539 15 203 4.8 11.3 0.03 0.46 0.46 82 1007.0
20260507001038 15 172 6.4 16.1 0.05 0.46 0.46 82 1006.9
20260507000613 15 178 6.4 19.3 0.13 0.46 0.46 81 1006.8
20260507000603 15 228 4.8 16.1 0.10 0.46 0.46 82 1006.9
20260506235613 15 186 6.4 12.9 0.15 0.46 0.46 81 1006.8
20260506235601 15 182 6.4 19.3 0.13 0.46 0.46 81 1006.7
20260506234533 15 195 6.4 12.9 0.18 0.46 0.46 81 1006.8
20260506234033 15 204 6.4 11.3 0.18 0.46 0.46 81 1006.8
20260506233532 15 169 4.8 12.9 0.20 0.46 0.46 81 1006.7
20260506233032 15 199 6.4 17.7 0.23 0.46 0.46 81 1006.8
20260506232531 15 161 6.4 17.7 0.23 0.46 0.46 80 1006.7
20260506232031 15 226 6.4 17.7 0.20 0.43 0.43 80 1006.8
20260506231531 15 191 8.0 14.5 0.20 0.43 0.43 80 1006.8
20260506231034 15 134 6.4 16.1 0.18 0.41 0.38 80 1006.8
20260506230531 15 184 6.4 17.7 0.13 0.36 0.36 80 1006.9
20260506230037 15 220 6.4 17.7 0.10 0.33 0.33 79 1007.0
20260506225532 15 178 6.4 16.1 0.10 0.33 0.30 79 1007.1
20260506225032 15 182 8.0 16.1 0.10 0.30 0.30 79 1007.0
20260506224528 15 190 8.0 16.1 0.08 0.28 0.28 79 1007.1
20260506224028 15 213 8.0 22.5 0.08 0.28 0.28 79 1007.0
20260506223524 15 169 6.4 22.5 0.05 0.25 0.25 79 1007.1
20260506223023 15 182 6.4 12.9 0.03 0.23 0.23 79 1007.1
20260506222522 15 213 8.0 16.1 0.03 0.23 0.23 78 1007.2
20260506222023 15 177 9.7 17.7 0.03 0.23 0.23 78 1007.1
20260506221520 15 207 8.0 17.7 0.05 0.23 0.23 78 1007.2
20260506221021 15 227 8.0 20.9 0.05 0.23 0.23 78 1007.3
20260506220522 15 184 8.0 20.9 0.05 0.23 0.23 78 1007.4
20260506220021 16 195 6.4 14.5 0.05 0.23 0.23 78 1007.4
20260506215518 16 202 6.4 14.5 0.05 0.23 0.23 78 1007.4
20260506215018 16 172 4.8 11.3 0.05 0.20 0.20 77 1007.5
20260506214521 16 176 6.4 17.7 0.05 0.20 0.20 77 1007.4
20260506214022 16 194 8.0 17.7 0.05 0.20 0.20 77 1007.3
20260506213519 16 154 8.0 16.1 0.08 0.20 0.20 77 1007.5
20260506213018 16 182 6.4 14.5 0.08 0.20 0.20 77 1007.6
20260506212519 16 172 6.4 14.5 0.10 0.20 0.20 76 1007.7
20260506212301 16 195 6.4 14.5 0.10 0.20 0.20 76 1007.8
20260506211520 16 186 8.0 14.5 0.08 0.18 0.18 76 1007.8
20260506211018 16 178 6.4 16.1 0.10 0.18 0.18 75 1007.9
20260506210519 16 180 6.4 16.1 0.13 0.18 0.18 75 1007.8
20260506210020 16 206 8.0 19.3 0.13 0.18 0.18 75 1008.0
20260506205515 16 178 8.0 19.3 0.13 0.18 0.15 75 1008.1
20260506205016 16 169 6.4 17.7 0.10 0.15 0.15 74 1008.1
20260506204514 16 172 6.4 12.9 0.10 0.15 0.15 74 1008.0
20260506204016 16 176 6.4 12.9 0.10 0.15 0.15 74 1008.2
20260506203515 16 196 6.4 12.9 0.08 0.13 0.13 73 1008.2
20260506203017 16 185 6.4 22.5 0.10 0.13 0.13 73 1008.2
20260506202515 16 188 8.0 22.5 0.08 0.10 0.10 72 1008.1
20260506202013 16 198 9.7 25.7 0.08 0.10 0.10 72 1007.9
20260506201518 17 207 11.3 25.7 0.08 0.10 0.08 71 1007.9
20260506201252 17 230 9.7 27.4 0.08 0.08 0.08 70 1008.0
20260506200514 17 178 8.0 27.4 0.05 0.05 0.05 70 1008.0
20260506200015 17 205 6.4 19.3 0.05 0.05 0.05 70 1008.0
20260506195514 17 196 8.0 24.1 0.05 0.05 0.05 69 1008.1
20260506195018 17 180 9.7 24.1 0.05 0.05 0.05 69 1008.0
20260506194515 17 186 8.0 17.7 0.05 0.05 0.05 68 1008.0
20260506194015 18 168 6.4 17.7 0.05 0.05 0.05 68 1008.1
20260506193514 18 200 6.4 14.5 0.05 0.05 0.05 67 1008.1
20260506193013 18 190 6.4 14.5 0.03 0.03 0.03 66 1008.0
20260506192512 18 197 8.0 17.7 0.03 0.03 0.03 65 1007.9
20260506192254 18 207 8.0 19.3 0.03 0.03 0.03 64 1008.0
20260506191515 19 230 9.7 19.3 0.03 0.03 0.00 62 1007.9
20260506191012 19 206 8.0 17.7 0.00 0.00 0.00 61 1008.0
20260506190512 20 195 8.0 17.7 0.00 0.00 0.00 60 1008.0
20260506190010 20 196 9.7 19.3 0.00 0.00 0.00 59 1008.0
20260506185508 20 191 11.3 32.2 0.00 0.00 0.00 58 1008.1
20260506185007 20 184 12.9 32.2 0.00 0.00 0.00 57 1008.1
20260506184752 20 187 14.5 38.6 0.00 0.00 0.00 55 1008.2
20260506184005 21 243 16.1 38.6 0.00 0.00 0.00 55 1008.0
20260506183506 21 228 19.3 38.6 0.00 0.00 0.00 54 1008.0
20260506183005 21 245 20.9 38.6 0.00 0.00 0.00 52 1008.0
20260506182505 21 205 17.7 35.4 0.00 0.00 0.00 51 1008.0
20260506182242 22 190 14.5 37.0 0.00 0.00 0.00 49 1008.0
20260506181459 22 213 14.5 37.0 0.00 0.00 0.00 48 1008.0
20260506180949 22 224 17.7 37.0 0.00 0.00 0.00 48 1007.9
20260506180442 22 246 12.9 37.0 0.00 0.00 0.00 48 1008.1
20260506175937 22 164 14.5 40.2 0.00 0.00 0.00 48 1008.1
20260506175437 22 220 12.9 40.2 0.00 0.00 0.00 47 1008.2
20260506175217 22 164 11.3 37.0 0.00 0.00 0.00 47 1008.3
20260506174434 22 177 12.9 30.6 0.00 0.00 0.00 47 1008.3
20260506173932 22 218 12.9 29.0 0.00 0.00 0.00 47 1008.3
20260506173432 22 238 11.3 29.0 0.00 0.00 0.00 48 1008.3
20260506172931 22 181 12.9 40.2 0.00 0.00 0.00 47 1008.3
20260506172431 22 224 14.5 40.2 0.00 0.00 0.00 47 1008.3
20260506171935 22 218 12.9 33.8 0.00 0.00 0.00 48 1008.2
20260506171434 22 209 12.9 33.8 0.00 0.00 0.00 48 1008.3
20260506170932 22 193 14.5 33.8 0.00 0.00 0.00 49 1008.4
20260506170433 22 168 14.5 33.8 0.00 0.00 0.00 49 1008.4
20260506165931 22 191 12.9 33.8 0.00 0.00 0.00 49 1008.4
20260506165430 22 170 11.3 25.7 0.00 0.00 0.00 50 1008.5
20260506164938 22 207 12.9 27.4 0.00 0.00 0.00 50 1008.6
20260506164430 22 167 12.9 27.4 0.00 0.00 0.00 50 1008.7
20260506163931 22 195 11.3 22.5 0.00 0.00 0.00 50 1008.7
20260506163423 22 222 12.9 32.2 0.00 0.00 0.00 50 1008.8
20260506162917 22 192 11.3 32.2 0.00 0.00 0.00 50 1008.9
20260506162419 22 171 11.3 29.0 0.00 0.00 0.00 50 1008.8
20260506161916 22 213 12.9 29.0 0.00 0.00 0.00 50 1008.9
20260506161416 22 213 12.9 29.0 0.00 0.00 0.00 49 1009.1
20260506160915 22 199 12.9 25.7 0.00 0.00 0.00 50 1009.2
20260506160804 22 220 12.9 29.0 0.00 0.00 0.00 50 1009.4
20260506160457 22 233 12.9 25.7 0.00 0.00 0.00 50 1009.4
20260506155414 22 263 14.5 29.0 0.00 0.00 0.00 50 1009.6
20260506154907 22 218 16.1 33.8 0.00 0.00 0.00 50 1009.7
20260506154741 22 227 9.7 22.5 0.00 0.00 0.00 51 1009.8
20260506154444 22 212 12.9 33.8 0.00 0.00 0.00 50 1009.7
20260506153409 22 224 11.3 24.1 0.00 0.00 0.00 51 1010.0
20260506152906 22 166 12.9 29.0 0.00 0.00 0.00 52 1010.0
20260506152412 22 227 12.9 29.0 0.00 0.00 0.00 51 1009.9
20260506151903 22 249 9.7 25.7 0.00 0.00 0.00 52 1010.2
20260506151409 22 220 8.0 20.9 0.00 0.00 0.00 52 1010.2
20260506150905 22 230 9.7 20.9 0.00 0.00 0.00 52 1010.2
20260506150402 22 182 11.3 24.1 0.00 0.00 0.00 53 1010.2
20260506145904 21 211 11.3 24.1 0.00 0.00 0.00 53 1010.3
20260506145657 21 176 11.3 24.1 0.00 0.00 0.00 53 1010.4
20260506144900 21 203 11.3 24.1 0.00 0.00 0.00 54 1010.4
20260506144641 21 173 11.3 24.1 0.00 0.00 0.00 54 1010.3
20260506143850 21 185 11.3 24.1 0.00 0.00 0.00 54 1010.3
20260506143344 21 204 11.3 24.1 0.00 0.00 0.00 55 1010.2
20260506142840 21 193 11.3 22.5 0.00 0.00 0.00 55 1010.2
20260506142340 21 172 11.3 32.2 0.00 0.00 0.00 55 1010.2
20260506141837 21 237 9.7 32.2 0.00 0.00 0.00 56 1010.0
20260506141339 21 169 9.7 17.7 0.00 0.00 0.00 56 1010.0
20260506140837 20 157 9.7 19.3 0.00 0.00 0.00 57 1010.0
20260506140336 20 185 9.7 24.1 0.00 0.00 0.00 57 1010.2
20260506135836 20 150 9.7 24.1 0.00 0.00 0.00 58 1010.0
20260506135336 20 193 6.4 22.5 0.00 0.00 0.00 59 1010.1
20260506134833 20 168 4.8 19.3 0.00 0.00 0.00 60 1010.1
20260506134337 19 249 6.4 19.3 0.00 0.00 0.00 60 1010.3
20260506133833 19 178 8.0 24.1 0.00 0.00 0.00 60 1010.3
20260506133330 19 151 8.0 24.1 0.00 0.00 0.00 60 1010.5
20260506132830 18 157 9.7 19.3 0.00 0.00 0.00 61 1010.6
20260506132330 18 227 9.7 19.3 0.00 0.00 0.00 61 1010.6
20260506131829 18 153 9.7 19.3 0.00 0.00 0.00 61 1010.7
20260506131327 18 212 8.0 19.3 0.00 0.00 0.00 61 1010.7
20260506130827 18 191 8.0 16.1 0.00 0.00 0.00 61 1010.6
20260506130329 18 207 8.0 20.9 0.00 0.00 0.00 61 1010.5
20260506130108 18 179 9.7 20.9 0.00 0.00 0.00 61 1010.5
20260506125319 18 183 9.7 22.5 0.00 0.00 0.00 61 1010.7
20260506124820 18 191 11.3 29.0 0.00 0.00 0.00 61 1010.6
20260506124319 18 194 12.9 29.0 0.00 0.00 0.00 62 1010.5
20260506123819 18 177 12.9 29.0 0.00 0.00 0.00 62 1010.5
20260506123322 18 180 12.9 25.7 0.00 0.00 0.00 62 1010.6
20260506122819 18 181 11.3 22.5 0.00 0.00 0.00 62 1010.6
20260506122319 18 151 9.7 22.5 0.00 0.00 0.00 62 1010.8
20260506122103 18 206 9.7 24.1 0.00 0.00 0.00 62 1010.7
20260506121319 18 205 9.7 24.1 0.00 0.00 0.00 62 1010.6
20260506120821 17 201 9.7 20.9 0.00 0.00 0.00 64 1010.6
20260506120321 17 200 11.3 20.9 0.00 0.00 0.00 63 1010.5
20260506115819 17 199 11.3 20.9 0.00 0.00 0.00 64 1010.7
20260506115321 17 204 11.3 22.5 0.00 0.00 0.00 64 1010.8
20260506114820 17 221 9.7 22.5 0.00 0.00 0.00 64 1010.8
20260506114319 17 211 9.7 24.1 0.00 0.00 0.00 64 1010.8
20260506113821 17 165 9.7 24.1 0.00 0.00 0.00 64 1010.8
20260506113319 17 187 9.7 19.3 0.00 0.00 0.00 64 1011.0
20260506112822 17 247 9.7 29.0 0.00 0.00 0.00 64 1011.2
20260506112322 17 161 9.7 29.0 0.00 0.00 0.00 64 1011.2
20260506111818 17 182 8.0 24.1 0.00 0.00 0.00 64 1011.1
20260506111320 17 220 9.7 24.1 0.00 0.00 0.00 65 1010.9
20260506110820 16 190 8.0 20.9 0.00 0.00 0.00 65 1010.9
20260506110321 16 202 8.0 20.9 0.00 0.00 0.00 66 1010.8
20260506105820 16 216 8.0 20.9 0.00 0.00 0.00 66 1011.0
20260506105320 16 215 8.0 16.1 0.00 0.00 0.00 66 1011.0
20260506104825 16 186 8.0 19.3 0.00 0.00 0.00 66 1011.1
20260506104318 16 166 6.4 19.3 0.00 0.00 0.00 66 1011.0
20260506103818 16 134 6.4 14.5 0.00 0.00 0.00 66 1011.0
20260506103321 16 197 4.8 14.5 0.00 0.00 0.00 66 1010.9
20260506102823 16 189 6.4 14.5 0.00 0.00 0.00 65 1010.9
20260506102339 16 219 6.4 14.5 0.00 0.00 0.00 65 1010.9
20260506102331 16 232 6.4 14.5 0.00 0.00 0.00 65 1011.0
20260506101317 16 186 6.4 14.5 0.00 0.00 0.00 65 1011.0
20260506100820 16 205 6.4 16.1 0.00 0.00 0.00 65 1010.9
20260506100559 16 176 6.4 16.1 0.00 0.00 0.00 65 1010.8
20260506095816 16 203 4.8 14.5 0.00 0.00 0.00 65 1010.9
20260506095314 16 210 4.8 14.5 0.00 0.00 0.00 65 1011.0
20260506094813 16 194 4.8 11.3 0.00 0.00 0.00 65 1010.8
20260506094313 16 159 4.8 11.3 0.00 0.00 0.00 64 1010.7
20260506093812 16 164 4.8 12.9 0.00 0.00 0.00 64 1010.6
20260506093312 16 181 6.4 12.9 0.00 0.00 0.00 64 1010.8
20260506092813 16 166 6.4 12.9 0.00 0.00 0.00 64 1010.8
20260506092557 16 183 8.0 17.7 0.00 0.00 0.00 64 1011.0
20260506091808 16 157 8.0 17.7 0.00 0.00 0.00 63 1010.9
20260506091307 16 184 6.4 14.5 0.00 0.00 0.00 63 1010.8
20260506090806 16 169 6.4 16.1 0.00 0.00 0.00 63 1010.9
20260506090302 16 186 6.4 16.1 0.00 0.00 0.00 63 1010.8